Weather Roundup
Issued by NWS Springfield, MO

Home | Current Version | Previous Version | Graphics & Text | Print | Product List | Glossary On
Versions: 1 2 3 4 5 6 7 8 9 10 11 12 13 14 15 16 17 18 19 20 21 22 23 24 25 26 27 28 29 30 31 32 33 34 35 36 37 38 39 40 41 42 43 44 45 46 47 48 49 50
000
NZUS99 KSGF 241107
HRRSGF

HOURLY WEATHER
NATIONAL WEATHER SERVICE SPRINGFIELD MO
600 AM CDT THU JUL 24 2014

......SGF CWA......

CITY           SKY/WX    TMP DP  RH WIND       PRES   REMARKS
SPRINGFIELD    CLEAR     67  64  90 E5        30.11R
JOPLIN         CLEAR     67  64  90 N6        30.10R
WEST PLAINS    PTCLDY    63  58  83 NE7       30.12R
ROLLA          CLEAR     60  56  86 E5        30.12R
OSAGE BEACH    CLEAR     63  57  82 CALM      30.13R
BRANSON        CLOUDY    68  66  94 E7        30.11R

......SURROUNDING SGF CWA......

CITY           SKY/WX    TMP DP  RH WIND       PRES   REMARKS
CHANUTE        PTCLDY    68  63  84 E9        30.10R
PARSONS        PTCLDY    69  64  84 VRB3      30.10R
COFFEYVILLE    PTCLDY    67  65  93 NE6       30.07S
EMPORIA        CLEAR     64  62  93 E7        30.11R
GROVE OK       CLEAR     68  68 100 CALM      30.08R FOG
ROGERS AR      MOCLDY    68  66  93 E9        30.10R
SILOAM SPRINGS CLEAR     64  57  77 CALM      30.09R
HARRISON AR    CLOUDY    70  68  93 E6        30.11R
NEAR YELLVILLE CLOUDY    70  68  94 NE5       30.09R

......KANSAS AND MISSOURI......

CITY           SKY/WX    TMP DP  RH WIND       PRES   REMARKS
KANSAS CTY INT CLEAR     67  59  75 E8        30.14R
DOWNTOWN KC    CLEAR     68  60  75 E7        30.13R
COLUMBIA       CLEAR     60  58  92 NE8       30.14R
SEDALIA        CLEAR     62  58  86 NE5       30.14R
ST JOSEPH      CLEAR     66  59  78 E5        30.14R
ST LOUIS       CLEAR     62  52  69 N5        30.13R
SPIRIT OF STL  CLEAR     55  52  89 CALM      30.12R
KIRKSVILLE     CLEAR     56  54  93 CALM      30.16S
WICHITA        PTCLDY    70  64  81 E6        30.09S
TOPEKA         CLEAR     66  62  87 CALM      30.13R
OLATHE         CLEAR     65  60  84 E7        30.13R

......TENNESSEE......

CITY           SKY/WX    TMP DP  RH WIND       PRES   REMARKS
MEMPHIS        PTCLDY    72  68  87 NE6       30.02R
NASHVILLE      CLOUDY    73  69  87 NW6       29.98R

......ARKANSAS.......

CITY           SKY/WX    TMP DP  RH WIND       PRES   REMARKS
FAYETTEVILLE   FOG       61  61 100 CALM      30.08S VSB 1/2
FT SMITH       CLEAR     67  66  97 W3        30.04R
LITTLE ROCK    PTCLDY    69  66  90 N3        30.04R

......OKLAHOMA.......

CITY           SKY/WX    TMP DP  RH WIND       PRES   REMARKS
TULSA          PTCLDY    67  66  97 NW6       30.05R
PONCA CITY     CLEAR     69  66  90 NE3       30.07R
MCALESTER      FOG       67  66  97 CALM      30.06R VSB 1/2
OKLAHOMA CITY  PTCLDY    73  66  78 NE6       30.07R

......IOWA............

CITY           SKY/WX    TMP DP  RH WIND       PRES   REMARKS
DES MOINES     CLEAR     64  58  80 CALM      30.15R
QUAD CITIES    PTCLDY    57  54  89 CALM      30.17R

......ILLINOIS........

CITY           SKY/WX    TMP DP  RH WIND       PRES   REMARKS
QUINCY         CLEAR     57  54  89 E3        30.15S
CHICAGO        PTCLDY    57  50  77 N7        30.16R




USA.gov is the U.S. government's official web portal to all federal, state and local government web resources and services.